�N����,����,�g�[���i���ԁj���x,�g�[�����x,��g�[���i���ցj���x,����
 2004/11/01, 0:00,21.3,75,20.7,19.7
 2004/11/01, 0:15,21.2,75,20.7,19.7
 2004/11/01, 0:30,21.2,74,20.7,19.7
 2004/11/01, 0:45,21.3,75,20.7,19.7
 2004/11/01, 1:00,21.3,76,20.8,19.7
 2004/11/01, 1:15,21.3,75,20.8,19.7
 2004/11/01, 1:30,21.3,75,20.7,19.8
 2004/11/01, 1:45,21.3,74,20.7,19.8
 2004/11/01, 2:00,21.3,75,20.7,19.8
 2004/11/01, 2:15,21.3,75,20.7,19.8
 2004/11/01, 2:30,21.3,75,20.7,19.8
 2004/11/01, 2:45,21.3,75,20.7,19.8
 2004/11/01, 3:00,21.3,75,20.6,19.8
 2004/11/01, 3:15,21.3,74,20.6,19.9
 2004/11/01, 3:30,21.2,75,20.7,19.9
 2004/11/01, 3:45,21.2,75,20.6,19.9
 2004/11/01, 4:00,21.2,75,20.6,19.4
 2004/11/01, 4:15,21.1,75,20.6,19.4
 2004/11/01, 4:30,21.1,74,20.6,19.5
 2004/11/01, 4:45,21.1,74,20.5,19.5
 2004/11/01, 5:00,21,75,20.5,19.5
 2004/11/01, 5:15,20.9,75,20.5,19.5
 2004/11/01, 5:30,20.8,74,20.4,19.5
 2004/11/01, 5:45,20.8,74,20.4,19.5
 2004/11/01, 6:00,20.7,74,20.3,19.6
 2004/11/01, 6:15,20.6,75,20.3,19.6
 2004/11/01, 6:30,20.6,74,20.3,19.3
 2004/11/01, 6:45,20.5,75,20.2,19.3
 2004/11/01, 7:00,20.5,75,20.2,19.3
 2004/11/01, 7:15,20.4,75,20.2,19.3
 2004/11/01, 7:30,20.4,75,20.2,19.3
 2004/11/01, 7:45,20.3,75,20.2,19.3
 2004/11/01, 8:00,20.3,75,20.2,19.4
 2004/11/01, 8:15,20.3,75,20.2,19.4
 2004/11/01, 8:30,20.4,76,20.2,19.4
 2004/11/01, 8:45,20.5,76,20.2,19.3
 2004/11/01, 9:00,20.9,78,20.8,19.3
 2004/11/01, 9:15,21.2,76,21.2,19
 2004/11/01, 9:30,21.3,74,21.3,19.4
 2004/11/01, 9:45,21.4,73,21.5,20.6
